{"data":{"norad_id":61940,"epoch":"2026-09-21T20:48:33.576192Z","epoch_age_seconds":67516,"freshness":"FRESH","line1":"1 61940U 24209B   26264.86705528  .00154294  00000+0  12545-2 0  9991","line2":"2 61940  53.1562 123.8962 0000964  59.3254 300.7859 15.69716542107536","mean_motion":15.69716542,"eccentricity":9.64e-5,"inclination_deg":53.1562,"raan_deg":123.8962,"arg_perigee_deg":59.3254,"mean_anomaly_deg":300.7859,"bstar":0.0012545,"rev_number":10753,"period_min":91.736307891951,"perigee_km":359.05850152407,"apogee_km":360.35755804581,"semimajor_km":6737.8450297849,"source":"CELESTRAK","updated_at":"2026-09-22T09:00:49.453523Z"}}